{"data":{"norad_id":40105,"intl_designator":"2014-045A","name":"GPS BIIF-7  (PRN 09)","alt_names":[],"object_type":"PAYLOAD","status":"ACTIVE","operator":null,"country":"US","launch_date":"2014-08-02","launch_site_code":"AFETR","launch_vehicle":null,"mission":null,"orbit_class":"UNKNOWN","rcs_meters":10.7868,"size_class":null,"mass_kg":null,"dimensions":null,"purposes":["earth_obs","nav"],"wikipedia_slug":null,"has_3d_model":false,"image_url":null,"decayed_at":null,"tle_current":{"epoch":"2026-09-19T18:50:01.671648Z","epoch_age_seconds":76265,"freshness":"FRESH","line1":"1 40105U 14045A   26262.78474157  .00000017  00000+0  00000+0 0  9991","line2":"2 40105  55.4212  84.6969 0036495 120.1919 240.2241  2.00564672 87971","mean_motion":2.00564672,"eccentricity":0.0036495,"inclination_deg":55.4212,"raan_deg":84.6969,"arg_perigee_deg":120.1919,"mean_anomaly_deg":240.2241,"bstar":0,"rev_number":8797,"period_min":717.9729040217,"perigee_km":20085.184883582,"apogee_km":20279.048174089,"semimajor_km":26560.253528836,"source":"CELESTRAK","updated_at":"2026-09-20T09:00:46.117914Z"}}}